Regional Weather Roundup
Issued by NWS Charleston, WV

Home | Current Version | Previous Version | Text Only | Print | Product List | Glossary On
Versions: 1 2 3 4 5 6 7 8 9 10 11 12 13 14 15 16 17 18 19 20 21 22 23 24 25 26 27 28 29 30 31 32 33 34 35 36 37 38 39 40 41 42 43 44 45 46 47 48 49 50
000
ASUS41 KRLX 171110
RWRRLX
West Virginia Regional Weather Roundup
National Weather Service Charleston WV
600 AM EST WED JAN 17 2018

Note: "fair" indicates few or no clouds below 12,000 feet with no
significant weather and/or obstructions to visibility.

WVZ003-171200-
Northern Panhandle of West Virginia

CITY           SKY/WX    TMP DP  RH WIND       PRES   REMARKS
WHEELING       CLOUDY     4   0  83 W7        30.47R WCI  -8
$$

WVZ009-171200-
Northwest West Virginia

CITY           SKY/WX    TMP DP  RH WIND       PRES   REMARKS
PARKERSBURG    LGT SNOW   4   0  83 NW5       30.56R VSB 1   WCI  -5
$$

WVZ006-171200-
Western West Virginia

CITY           SKY/WX    TMP DP  RH WIND       PRES   REMARKS
HUNTINGTON     FLURRIES   7   3  84 CALM      30.53R
$$

WVZ015-171200-
West Central West Virginia

CITY           SKY/WX    TMP DP  RH WIND       PRES   REMARKS
CHARLESTON     FLURRIES  10   3  73 NW5       30.50R WCI   2
$$

WVZ022-031-171200-
North Central West Virginia

CITY           SKY/WX    TMP DP  RH WIND       PRES   REMARKS
CLARKSBURG     LGT SNOW   8   2  76 W3        30.47R
MORGANTOWN     CLOUDY     9   3  77 VRB3      30.46R
$$

WVZ025-035-042-045-171200-
Southern West Virginia

CITY           SKY/WX    TMP DP  RH WIND       PRES   REMARKS
BECKLEY        CLOUDY     7   4  87 N13       30.30R WCI  -9
LOGAN          CLOUDY     7   5  92 CALM      30.43R
BLUEFIELD      FLURRIES  10   6  84 NW6       30.26R WCI   0
LEWISBURG      LGT SNOW  13   9  85 W3        30.30R
$$

WVZ047-171200-
Northern Mountains of West Virginia

CITY           SKY/WX    TMP DP  RH WIND       PRES   REMARKS
ELKINS         LGT SNOW   8   4  83 NW8       30.37R FOG     WCI  -4
$$

WVZ052-171200-
Eastern Panhandle of West Virginia

CITY           SKY/WX    TMP DP  RH WIND       PRES   REMARKS
MARTINSBURG    CLOUDY    21  13  71 NW9       30.39R
PETERSBURG     CLOUDY    19  14  79 SE3       30.39R
$$



USA.gov is the U.S. government's official web portal to all federal, state and local government web resources and services.